Current weather by "City, St" or "zip code"  
 

Current Conditions: Dyersburg, Dyersburg Municipal Airport, TN

Fair


72.0 F

Last Updated on Oct 21 2021, 12:56 pm CDT
Humidity: 43%
Wind Speed: W 12.7 mph
Barometer 30.08 in
Dewpoint: 48.0 F
Visibility: 10.00 mi
Precip: --
Heat Index: NA
Wind Chill: NA
Current conditions at:

Dyersburg, Dyersburg Municipal Airport, TN (KDYR)

Lat: 36 Lon: 89.4

Local Radar Image active severe weather and emergency alerts image image weather storm and storm spotter reports image weather observation monitoring service image
Local
Radar
Active
Alerts
Storm Reports Obs
Monitoring

Sign-up For Email & Text Message Weather Alert Notification Services



Advertise Here

Observation History for Dyersburg, Dyersburg Municipal Airport, TN


Time Wind
(mph)
Vis
(mi)
Weather Precip (in) Temperature (F) Relative
Humidity
Wind
Chill
(F)
Heat
Index
(F)
Pressure
Air Dwpt altimeter
(in)
sea level
(mb)
Rmks
12:56 pm CDT W 12.7 10.00 Fair -- 72.0 48.0 43% NA NA 30.08 1019.1
11:56 am CDT W 11.5 10.00 Fair -- 70.0 46.0 42% NA NA 30.11 1019.9
10:56 am CDT NW 10.4 G 20.7 10.00 Overcast -- 68.0 48.0 49% NA NA 30.11 1020.1
9:56 am CDT NW 10.4 10.00 Overcast -- 67.0 53.1 61% NA NA 30.11 1020.1
8:56 am CDT W 6.9 10.00 Overcast -- 67.0 64.0 91% NA NA 30.10 1019.8
7:56 am CDT W 9.2 10.00 Overcast -- 67.0 64.9 93% NA NA 30.09 1019.3
6:56 am CDT SW 9.2 10.00 Overcast -- 67.0 66.9 100% NA NA 30.07 1018.7
5:56 am CDT W 8.1 10.00 Overcast -- 68.0 68.0 100% NA NA 30.06 1018.4
4:56 am CDT SW 6.9 10.00 Overcast -- 68.0 68.0 100% NA NA 30.05 1017.9
3:56 am CDT S 3.5 10.00 Overcast -- 68.0 68.0 100% NA NA 30.05 1017.9
2:56 am CDT SW 4.6 10.00 Mostly Cloudy -- 67.0 66.9 100% NA NA 30.06 1018.2
1:56 am CDT 4.6 10.00 Fair -- 67.0 66.9 100% NA NA 30.06 1018.4
12:56 am CDT SW 4.6 10.00 Fair -- 67.0 66.9 100% NA NA 30.07 1018.8
11:56 pm CDT S 4.6 10.00 Fair -- 67.0 66.9 100% NA NA 30.09 1019.3
10:56 pm CDT 4.6 10.00 A Few Clouds -- 66.0 64.0 93% NA NA 30.10 1019.8
9:56 pm CDT N 0.0 10.00 Mostly Cloudy -- 65.0 62.1 90% NA NA 30.10 1019.8
8:56 pm CDT S 3.5 10.00 Fair -- 67.0 61.0 81% NA NA 30.09 1019.3
7:56 pm CDT 3.5 10.00 Fair -- 67.0 60.1 79% NA NA 30.08 1019.2
6:56 pm CDT N 0.0 10.00 Fair -- 67.0 59.0 76% NA NA 30.08 1019.2
5:56 pm CDT S 3.5 10.00 Fair -- 74.0 57.0 56% NA NA 30.08 1019.1
4:56 pm CDT 4.6 10.00 Fair -- 78.0 55.9 47% NA NA 30.09 1019.4
3:56 pm CDT 4.6 10.00 Fair -- 79.0 57.9 49% NA NA 30.11 1019.9
2:56 pm CDT 6.9 10.00 Fair -- 78.0 57.0 48% NA NA 30.12 1020.4
1:56 pm CDT S 8.1 9.00 Fair -- 77.0 57.9 52% NA NA 30.14 1021.0

Regional Weather Observation


Blytheville, Blytheville Municipal Airport, AR (KHKA)

Fair
73.0 F

Kennett - Kennett Memorial Airport, MO (KTKX)

Fair
72.0 F

Sikeston Memorial Municipal Airport, MO (KSIK)

Fair
68.0 F

Malden Municipal Airport, MO (KMAW)

Fair
68.0 F

COVINGTON MUNI, TN (KM04)

Fair
72.0 F

Union City - Everett-Stewart Regional Airport, TN (KUCY)

Fair
72.0 F

Advertise Here


Advertise Here